Regional Weather Roundup
Issued by NWS Goodland, KS

Home | Current Version | Previous Version | Graphics & Text | Print | Product List | Glossary On
Versions: 1 2 3 4 5 6 7 8 9 10 11 12 13 14 15 16 17 18 19 20 21 22 23 24 25 26 27 28 29 30 31 32 33 34 35 36 37 38 39 40 41 42 43 44 45 46 47 48 49 50
000
ASUS43 KGLD 231059
RWRGLD

GOODLAND FORECAST AREA HOURLY WEATHER ROUNDUP
NATIONAL WEATHER SERVICE GOODLAND KS
400 AM MST MON JAN 23 2017

...OFFICIAL OBSERVATIONS...

CITY           SKY/WX    TMP DP  RH WIND       PRES   REMARKS
GOODLAND KS    CLOUDY    34  26  72 S13       29.75F
HILL CITY KS   PTCLDY    24  23  96 CALM      29.85S
IMPERIAL NEB   CLOUDY    30  25  81 SE6       29.77F
MCCOOK NEB     PTCLDY    23  22  96 W5        29.82F
AKRON CO       CLOUDY    31  21  66 S12       29.69F
BURLINGTON CO  CLOUDY    35  26  69 S18       29.72F
LIMON CO       CLOUDY    26  18  71 VRB3      29.69F
$$

...UNOFFICIAL OBSERVATIONS...

CITY           SKY/WX    TMP DP  RH WIND       PRES   REMARKS
LENORA KS        N/A     30  32 100 CALM        N/A
NORTON KS      CLEAR     28  23  80 CALM      29.81F
SHARON SPRINGS   N/A     34  28  79 S17         N/A
TRENTON NEB      N/A     26  32 100 CALM        N/A
KIT CARSON CO    N/A     31  24  76 MISG        N/A
YUMA CO        FAIR      30  23  74 S8        29.73S
$$




USA.gov is the U.S. government's official web portal to all federal, state and local government web resources and services.